| time (UTC) | temp F | wind direction | speed MPH | gust MPH | rain 1hr in | rain 24hr in | rain mn in | humidity % | barometer mb |
| 20260503225252 | 56 | 198 | 5.0 | 13.0 | 0.00 | 0.00 | 0.00 | 61 | 1008.2 |
| 20260503225051 | 56 | 245 | 5.0 | 13.0 | 0.00 | 0.00 | 0.00 | 62 | 1008.2 |
| 20260503224851 | 56 | 213 | 4.0 | 13.0 | 0.00 | 0.00 | 0.00 | 63 | 1008.1 |
| 20260503224651 | 56 | 204 | 3.0 | 12.0 | 0.00 | 0.00 | 0.00 | 63 | 1008.2 |
| 20260503224450 | 56 | 150 | 3.0 | 12.0 | 0.00 | 0.00 | 0.00 | 63 | 1008.2 |
| 20260503224250 | 56 | 172 | 4.0 | 12.0 | 0.00 | 0.00 | 0.00 | 63 | 1008.3 |
| 20260503224050 | 56 | 198 | 4.0 | 12.0 | 0.00 | 0.00 | 0.00 | 64 | 1008.3 |
| 20260503223849 | 56 | 224 | 2.0 | 8.0 | 0.00 | 0.00 | 0.00 | 65 | 1008.4 |
| 20260503223649 | 55 | 191 | 1.0 | 7.0 | 0.00 | 0.00 | 0.00 | 65 | 1008.3 |
| 20260503223449 | 55 | 178 | 3.0 | 9.0 | 0.00 | 0.00 | 0.00 | 65 | 1008.3 |
| 20260503223249 | 55 | 213 | 3.0 | 13.0 | 0.00 | 0.00 | 0.00 | 65 | 1008.4 |
| 20260503223048 | 55 | 177 | 2.0 | 13.0 | 0.00 | 0.00 | 0.00 | 66 | 1008.5 |
| 20260503222848 | 55 | 154 | 3.0 | 13.0 | 0.00 | 0.00 | 0.00 | 66 | 1008.5 |
| 20260503222648 | 55 | 196 | 2.0 | 13.0 | 0.00 | 0.00 | 0.00 | 66 | 1008.4 |
| 20260503222447 | 55 | 199 | 3.0 | 13.0 | 0.00 | 0.00 | 0.00 | 66 | 1008.5 |
| 20260503222247 | 55 | 224 | 3.0 | 13.0 | 0.00 | 0.00 | 0.00 | 67 | 1008.5 |
| 20260503222047 | 55 | 230 | 3.0 | 9.0 | 0.00 | 0.00 | 0.00 | 68 | 1008.5 |
| 20260503221846 | 55 | 191 | 3.0 | 9.0 | 0.00 | 0.00 | 0.00 | 68 | 1008.5 |
| 20260503221646 | 55 | 201 | 3.0 | 9.0 | 0.00 | 0.00 | 0.00 | 68 | 1008.4 |
| 20260503221446 | 55 | 219 | 4.0 | 9.0 | 0.00 | 0.00 | 0.00 | 68 | 1008.5 |
| 20260503221246 | 54 | 192 | 4.0 | 9.0 | 0.00 | 0.00 | 0.00 | 69 | 1008.4 |
| 20260503221045 | 54 | 214 | 3.0 | 8.0 | 0.00 | 0.00 | 0.00 | 71 | 1008.4 |
| 20260503220845 | 54 | 232 | 3.0 | 8.0 | 0.00 | 0.00 | 0.00 | 71 | 1008.5 |
| 20260503220645 | 54 | 225 | 4.0 | 12.0 | 0.00 | 0.00 | 0.00 | 71 | 1008.4 |
| 20260503220444 | 54 | 231 | 3.0 | 12.0 | 0.00 | 0.00 | 0.00 | 72 | 1008.4 |
| 20260503220244 | 54 | 197 | 3.0 | 12.0 | 0.00 | 0.00 | 0.00 | 73 | 1008.3 |
| 20260503220044 | 54 | 196 | 3.0 | 12.0 | 0.00 | 0.00 | 0.00 | 74 | 1008.3 |
| 20260503215843 | 53 | 203 | 4.0 | 12.0 | 0.00 | 0.00 | 0.00 | 74 | 1008.3 |
| 20260503215643 | 53 | 203 | 3.0 | 12.0 | 0.00 | 0.00 | 0.00 | 74 | 1008.4 |
| 20260503215443 | 53 | 212 | 2.0 | 7.0 | 0.00 | 0.00 | 0.00 | 74 | 1008.4 |
| 20260503215242 | 53 | 257 | 1.0 | 9.0 | 0.00 | 0.00 | 0.00 | 75 | 1008.5 |
| 20260503215042 | 53 | 231 | 1.0 | 10.0 | 0.00 | 0.00 | 0.00 | 75 | 1008.5 |
| 20260503214842 | 53 | 223 | 2.0 | 10.0 | 0.00 | 0.00 | 0.00 | 74 | 1008.5 |
| 20260503214642 | 53 | 207 | 4.0 | 10.0 | 0.00 | 0.00 | 0.00 | 73 | 1008.4 |
| 20260503214441 | 53 | 217 | 4.0 | 10.0 | 0.00 | 0.00 | 0.00 | 73 | 1008.5 |
| 20260503214241 | 53 | 152 | 3.0 | 10.0 | 0.00 | 0.00 | 0.00 | 72 | 1008.6 |
| 20260503214041 | 54 | 74 | 1.0 | 10.0 | 0.00 | 0.00 | 0.00 | 73 | 1008.7 |
| 20260503213840 | 54 | 351 | 2.0 | 10.0 | 0.00 | 0.00 | 0.00 | 72 | 1008.7 |
| 20260503213640 | 54 | 337 | 3.0 | 10.0 | 0.00 | 0.00 | 0.00 | 72 | 1008.7 |
| 20260503213440 | 54 | 264 | 2.0 | 10.0 | 0.00 | 0.00 | 0.00 | 71 | 1008.7 |
| 20260503213240 | 54 | 218 | 2.0 | 10.0 | 0.00 | 0.00 | 0.00 | 72 | 1008.7 |
| 20260503213039 | 54 | 118 | 1.0 | 12.0 | 0.00 | 0.00 | 0.00 | 72 | 1008.8 |
| 20260503212839 | 54 | 128 | 2.0 | 12.0 | 0.00 | 0.00 | 0.00 | 72 | 1008.7 |
| 20260503212639 | 54 | 69 | 3.0 | 12.0 | 0.00 | 0.00 | 0.00 | 71 | 1008.7 |
| 20260503212438 | 54 | 135 | 4.0 | 12.0 | 0.00 | 0.00 | 0.00 | 72 | 1008.6 |
| 20260503212238 | 54 | 159 | 3.0 | 12.0 | 0.00 | 0.00 | 0.00 | 70 | 1008.6 |
| 20260503212038 | 54 | 148 | 2.0 | 8.0 | 0.00 | 0.00 | 0.00 | 71 | 1008.7 |
| 20260503211837 | 54 | 305 | 4.0 | 8.0 | 0.00 | 0.00 | 0.00 | 71 | 1008.7 |
| 20260503211637 | 54 | 130 | 4.0 | 8.0 | 0.00 | 0.00 | 0.00 | 71 | 1008.8 |
| 20260503211437 | 54 | 102 | 2.0 | 8.0 | 0.00 | 0.00 | 0.00 | 73 | 1008.7 |
| 20260503211236 | 54 | 215 | 1.0 | 12.0 | 0.00 | 0.00 | 0.00 | 72 | 1008.7 |
| 20260503211036 | 54 | 245 | 1.0 | 12.0 | 0.00 | 0.00 | 0.00 | 72 | 1008.7 |
| 20260503210836 | 54 | 244 | 3.0 | 12.0 | 0.00 | 0.00 | 0.00 | 72 | 1008.6 |
| 20260503210636 | 54 | 219 | 3.0 | 12.0 | 0.00 | 0.00 | 0.00 | 72 | 1008.6 |
| 20260503210435 | 54 | 216 | 4.0 | 12.0 | 0.00 | 0.00 | 0.00 | 72 | 1008.5 |
| 20260503210235 | 54 | 206 | 4.0 | 10.0 | 0.00 | 0.00 | 0.00 | 71 | 1008.5 |
| 20260503210035 | 54 | 222 | 3.0 | 9.0 | 0.00 | 0.00 | 0.00 | 72 | 1008.6 |
| 20260503205834 | 54 | 220 | 3.0 | 9.0 | 0.00 | 0.00 | 0.00 | 70 | 1008.5 |
| 20260503205634 | 54 | 222 | 2.0 | 9.0 | 0.00 | 0.00 | 0.00 | 70 | 1008.5 |
| 20260503205434 | 55 | 239 | 3.0 | 13.0 | 0.00 | 0.00 | 0.00 | 70 | 1008.6 |
| 20260503205234 | 55 | 210 | 3.0 | 14.0 | 0.00 | 0.00 | 0.00 | 70 | 1008.5 |
| 20260503205033 | 55 | 187 | 4.0 | 14.0 | 0.00 | 0.00 | 0.00 | 69 | 1008.5 |
| 20260503204833 | 55 | 192 | 4.0 | 14.0 | 0.00 | 0.00 | 0.00 | 69 | 1008.5 |
| 20260503204633 | 55 | 199 | 5.0 | 19.0 | 0.00 | 0.00 | 0.00 | 69 | 1008.6 |
| 20260503204432 | 56 | 198 | 5.0 | 19.0 | 0.00 | 0.00 | 0.00 | 67 | 1008.6 |
| 20260503204232 | 56 | 240 | 6.0 | 19.0 | 0.00 | 0.00 | 0.00 | 67 | 1008.5 |
| 20260503204032 | 57 | 217 | 6.0 | 19.0 | 0.00 | 0.00 | 0.00 | 63 | 1008.6 |
| 20260503203831 | 58 | 141 | 7.0 | 19.0 | 0.00 | 0.00 | 0.00 | 60 | 1008.5 |
| 20260503203631 | 58 | 170 | 4.0 | 16.0 | 0.00 | 0.00 | 0.00 | 59 | 1008.5 |
| 20260503203431 | 58 | 165 | 3.0 | 25.0 | 0.00 | 0.00 | 0.00 | 57 | 1008.4 |
| 20260503203230 | 58 | 123 | 2.0 | 25.0 | 0.00 | 0.00 | 0.00 | 57 | 1008.3 |
| 20260503203030 | 58 | 273 | 4.0 | 25.0 | 0.00 | 0.00 | 0.00 | 56 | 1008.3 |
| 20260503202830 | 58 | 200 | 7.0 | 25.0 | 0.00 | 0.00 | 0.00 | 56 | 1008.2 |
| 20260503202630 | 58 | 278 | 7.0 | 25.0 | 0.00 | 0.00 | 0.00 | 55 | 1008.2 |
| 20260503202429 | 59 | 181 | 8.0 | 20.0 | 0.00 | 0.00 | 0.00 | 55 | 1008.2 |
| 20260503202229 | 59 | 148 | 8.0 | 20.0 | 0.00 | 0.00 | 0.00 | 54 | 1008.2 |
| 20260503202029 | 59 | 174 | 8.0 | 19.0 | 0.00 | 0.00 | 0.00 | 54 | 1008.2 |
| 20260503201828 | 59 | 238 | 7.0 | 19.0 | 0.00 | 0.00 | 0.00 | 55 | 1008.1 |
| 20260503201628 | 59 | 225 | 5.0 | 20.0 | 0.00 | 0.00 | 0.00 | 55 | 1008.1 |
| 20260503201428 | 60 | 220 | 6.0 | 20.0 | 0.00 | 0.00 | 0.00 | 55 | 1008.2 |
| 20260503201227 | 60 | 275 | 7.0 | 20.0 | 0.00 | 0.00 | 0.00 | 55 | 1008.2 |
| 20260503201027 | 60 | 163 | 6.0 | 20.0 | 0.00 | 0.00 | 0.00 | 54 | 1008.1 |
| 20260503200827 | 60 | 224 | 6.0 | 16.0 | 0.00 | 0.00 | 0.00 | 55 | 1008.1 |
| 20260503200627 | 60 | 233 | 6.0 | 19.0 | 0.00 | 0.00 | 0.00 | 56 | 1008.1 |
| 20260503200426 | 59 | 218 | 6.0 | 20.0 | 0.00 | 0.00 | 0.00 | 56 | 1008.1 |
| 20260503200226 | 59 | 224 | 7.0 | 20.0 | 0.00 | 0.00 | 0.00 | 56 | 1008.1 |
| 20260503200026 | 58 | 240 | 7.0 | 20.0 | 0.00 | 0.00 | 0.00 | 57 | 1008.2 |
| 20260503195825 | 58 | 213 | 7.0 | 20.0 | 0.00 | 0.00 | 0.00 | 57 | 1008.2 |
| 20260503195625 | 58 | 193 | 5.0 | 20.0 | 0.00 | 0.00 | 0.00 | 58 | 1008.4 |
| 20260503195425 | 58 | 207 | 6.0 | 17.0 | 0.00 | 0.00 | 0.00 | 58 | 1008.5 |
| 20260503195224 | 57 | 229 | 6.0 | 17.0 | 0.00 | 0.00 | 0.00 | 58 | 1008.3 |
| 20260503195024 | 57 | 193 | 6.0 | 13.0 | 0.00 | 0.00 | 0.00 | 59 | 1008.4 |
| 20260503194824 | 57 | 182 | 6.0 | 19.0 | 0.00 | 0.00 | 0.00 | 60 | 1008.4 |
| 20260503194624 | 57 | 206 | 4.0 | 20.0 | 0.00 | 0.00 | 0.00 | 60 | 1008.4 |
| 20260503194423 | 57 | 225 | 4.0 | 20.0 | 0.00 | 0.00 | 0.00 | 60 | 1008.3 |
| 20260503194223 | 57 | 225 | 5.0 | 20.0 | 0.00 | 0.00 | 0.00 | 60 | 1008.3 |
| 20260503194023 | 57 | 216 | 5.0 | 20.0 | 0.00 | 0.00 | 0.00 | 60 | 1008.4 |
| 20260503193822 | 58 | 203 | 6.0 | 20.0 | 0.00 | 0.00 | 0.00 | 60 | 1008.4 |
| 20260503193622 | 58 | 233 | 4.0 | 15.0 | 0.00 | 0.00 | 0.00 | 58 | 1008.5 |
| 20260503193422 | 58 | 220 | 6.0 | 15.0 | 0.00 | 0.00 | 0.00 | 58 | 1008.5 |
| 20260503193221 | 58 | 212 | 4.0 | 16.0 | 0.00 | 0.00 | 0.00 | 58 | 1008.4 |
| 20260503193021 | 58 | 238 | 5.0 | 17.0 | 0.00 | 0.00 | 0.00 | 58 | 1008.5 |
| 20260503192821 | 58 | 218 | 7.0 | 17.0 | 0.00 | 0.00 | 0.00 | 58 | 1008.6 |
| 20260503192621 | 59 | 218 | 9.0 | 17.0 | 0.00 | 0.00 | 0.00 | 57 | 1008.6 |
| 20260503192420 | 59 | 211 | 7.0 | 17.0 | 0.00 | 0.00 | 0.00 | 56 | 1008.6 |
| 20260503192220 | 59 | 209 | 6.0 | 17.0 | 0.00 | 0.00 | 0.00 | 56 | 1008.5 |
| 20260503192020 | 60 | 229 | 8.0 | 17.0 | 0.00 | 0.00 | 0.00 | 54 | 1008.5 |
| 20260503191819 | 60 | 228 | 6.0 | 17.0 | 0.00 | 0.00 | 0.00 | 53 | 1008.5 |
| 20260503191619 | 60 | 212 | 7.0 | 17.0 | 0.00 | 0.00 | 0.00 | 53 | 1008.5 |
| 20260503191419 | 61 | 230 | 4.0 | 17.0 | 0.00 | 0.00 | 0.00 | 52 | 1008.6 |
| 20260503191218 | 61 | 218 | 5.0 | 17.0 | 0.00 | 0.00 | 0.00 | 51 | 1008.5 |
| 20260503191018 | 61 | 156 | 6.0 | 17.0 | 0.00 | 0.00 | 0.00 | 51 | 1008.5 |
| 20260503190818 | 60 | 204 | 6.0 | 17.0 | 0.00 | 0.00 | 0.00 | 50 | 1008.6 |
| 20260503190618 | 60 | 220 | 7.0 | 17.0 | 0.00 | 0.00 | 0.00 | 50 | 1008.6 |
| 20260503190417 | 60 | 219 | 6.0 | 15.0 | 0.00 | 0.00 | 0.00 | 51 | 1008.7 |
| 20260503190217 | 60 | 220 | 5.0 | 15.0 | 0.00 | 0.00 | 0.00 | 51 | 1008.7 |
| 20260503190017 | 60 | 209 | 6.0 | 15.0 | 0.00 | 0.00 | 0.00 | 52 | 1008.6 |
| 20260503185816 | 60 | 236 | 6.0 | 15.0 | 0.00 | 0.00 | 0.00 | 52 | 1008.7 |
| 20260503185616 | 59 | 237 | 5.0 | 15.0 | 0.00 | 0.00 | 0.00 | 52 | 1008.7 |
| 20260503185416 | 59 | 193 | 5.0 | 16.0 | 0.00 | 0.00 | 0.00 | 53 | 1008.8 |
| 20260503185215 | 59 | 179 | 4.0 | 16.0 | 0.00 | 0.00 | 0.00 | 53 | 1008.8 |
| 20260503185015 | 59 | 227 | 5.0 | 16.0 | 0.00 | 0.00 | 0.00 | 53 | 1008.9 |
| 20260503184815 | 59 | 245 | 6.0 | 17.0 | 0.00 | 0.00 | 0.00 | 53 | 1008.9 |
| 20260503184615 | 60 | 220 | 7.0 | 17.0 | 0.00 | 0.00 | 0.00 | 52 | 1008.9 |
| 20260503184414 | 60 | 236 | 6.0 | 17.0 | 0.00 | 0.00 | 0.00 | 52 | 1009.0 |
| 20260503184214 | 60 | 220 | 7.0 | 17.0 | 0.00 | 0.00 | 0.00 | 52 | 1009.0 |
| 20260503184014 | 60 | 193 | 7.0 | 17.0 | 0.00 | 0.00 | 0.00 | 53 | 1009.2 |
| 20260503183813 | 60 | 189 | 6.0 | 16.0 | 0.00 | 0.00 | 0.00 | 54 | 1009.1 |
| 20260503183613 | 60 | 206 | 8.0 | 16.0 | 0.00 | 0.00 | 0.00 | 54 | 1009.1 |
| 20260503183413 | 60 | 198 | 8.0 | 17.0 | 0.00 | 0.00 | 0.00 | 53 | 1009.1 |
| 20260503183212 | 61 | 209 | 6.0 | 17.0 | 0.00 | 0.00 | 0.00 | 53 | 1009.1 |
| 20260503183012 | 61 | 204 | 7.0 | 17.0 | 0.00 | 0.00 | 0.00 | 53 | 1009.1 |
| 20260503182812 | 61 | 218 | 7.0 | 17.0 | 0.00 | 0.00 | 0.00 | 52 | 1009.3 |
| 20260503182612 | 60 | 205 | 5.0 | 18.0 | 0.00 | 0.00 | 0.00 | 55 | 1009.1 |
| 20260503182411 | 60 | 177 | 5.0 | 22.0 | 0.00 | 0.00 | 0.00 | 55 | 1009.1 |
| 20260503182211 | 59 | 198 | 6.0 | 22.0 | 0.00 | 0.00 | 0.00 | 55 | 1009.2 |
| 20260503182011 | 59 | 203 | 7.0 | 22.0 | 0.00 | 0.00 | 0.00 | 56 | 1009.3 |
| 20260503181810 | 59 | 217 | 7.0 | 22.0 | 0.00 | 0.00 | 0.00 | 55 | 1009.4 |
| 20260503181610 | 59 | 208 | 7.0 | 22.0 | 0.00 | 0.00 | 0.00 | 54 | 1009.6 |
| 20260503181410 | 59 | 238 | 5.0 | 20.0 | 0.00 | 0.00 | 0.00 | 55 | 1009.7 |
| 20260503181209 | 59 | 212 | 6.0 | 20.0 | 0.00 | 0.00 | 0.00 | 54 | 1009.6 |
| 20260503181009 | 60 | 209 | 6.0 | 20.0 | 0.00 | 0.00 | 0.00 | 54 | 1009.7 |
| 20260503180809 | 60 | 197 | 8.0 | 20.0 | 0.00 | 0.00 | 0.00 | 53 | 1009.7 |
| 20260503180608 | 60 | 220 | 8.0 | 20.0 | 0.00 | 0.00 | 0.00 | 52 | 1009.7 |
| 20260503180408 | 60 | 211 | 8.0 | 15.0 | 0.00 | 0.00 | 0.00 | 52 | 1009.7 |
| 20260503180208 | 61 | 186 | 6.0 | 24.0 | 0.00 | 0.00 | 0.00 | 53 | 1009.8 |
| 20260503180008 | 61 | 189 | 7.0 | 24.0 | 0.00 | 0.00 | 0.00 | 52 | 1009.7 |
| 20260503175807 | 60 | 214 | 7.0 | 24.0 | 0.00 | 0.00 | 0.00 | 54 | 1009.6 |
| 20260503175607 | 60 | 232 | 8.0 | 24.0 | 0.00 | 0.00 | 0.00 | 53 | 1009.7 |
| 20260503175407 | 60 | 211 | 6.0 | 24.0 | 0.00 | 0.00 | 0.00 | 54 | 1009.6 |
| 20260503175206 | 60 | 220 | 6.0 | 17.0 | 0.00 | 0.00 | 0.00 | 53 | 1009.7 |
| 20260503175006 | 60 | 216 | 5.0 | 17.0 | 0.00 | 0.00 | 0.00 | 53 | 1009.7 |
| 20260503174806 | 59 | 208 | 7.0 | 21.0 | 0.00 | 0.00 | 0.00 | 53 | 1009.8 |
| 20260503174605 | 59 | 206 | 8.0 | 24.0 | 0.00 | 0.00 | 0.00 | 53 | 1009.8 |
| 20260503174405 | 59 | 200 | 8.0 | 24.0 | 0.00 | 0.00 | 0.00 | 53 | 1009.9 |
| 20260503174205 | 59 | 222 | 7.0 | 24.0 | 0.00 | 0.00 | 0.00 | 53 | 1009.9 |
| 20260503174005 | 59 | 227 | 8.0 | 24.0 | 0.00 | 0.00 | 0.00 | 53 | 1010.0 |
| 20260503173804 | 59 | 215 | 10.0 | 24.0 | 0.00 | 0.00 | 0.00 | 53 | 1009.9 |
| 20260503173604 | 59 | 211 | 7.0 | 16.0 | 0.00 | 0.00 | 0.00 | 52 | 1009.9 |
| 20260503173404 | 59 | 218 | 7.0 | 16.0 | 0.00 | 0.00 | 0.00 | 52 | 1010.0 |
| 20260503173203 | 59 | 263 | 7.0 | 16.0 | 0.00 | 0.00 | 0.00 | 51 | 1010.0 |
| 20260503173003 | 59 | 237 | 8.0 | 16.0 | 0.00 | 0.00 | 0.00 | 51 | 1010.0 |
| 20260503172803 | 59 | 220 | 8.0 | 16.0 | 0.00 | 0.00 | 0.00 | 50 | 1010.1 |
| 20260503172603 | 59 | 211 | 7.0 | 16.0 | 0.00 | 0.00 | 0.00 | 49 | 1010.1 |
| 20260503172402 | 59 | 174 | 8.0 | 17.0 | 0.00 | 0.00 | 0.00 | 48 | 1010.0 |
| 20260503172202 | 59 | 195 | 6.0 | 17.0 | 0.00 | 0.00 | 0.00 | 48 | 1010.0 |
| 20260503172002 | 60 | 192 | 6.0 | 17.0 | 0.00 | 0.00 | 0.00 | 49 | 1009.9 |
| 20260503171801 | 59 | 192 | 7.0 | 17.0 | 0.00 | 0.00 | 0.00 | 49 | 1010.1 |
| 20260503171601 | 59 | 227 | 7.0 | 16.0 | 0.00 | 0.00 | 0.00 | 50 | 1010.0 |
| 20260503171401 | 59 | 236 | 6.0 | 16.0 | 0.00 | 0.00 | 0.00 | 49 | 1010.1 |
| 20260503171200 | 59 | 246 | 6.0 | 16.0 | 0.00 | 0.00 | 0.00 | 49 | 1010.1 |
| 20260503171000 | 59 | 238 | 7.0 | 16.0 | 0.00 | 0.00 | 0.00 | 49 | 1010.1 |
| 20260503170800 | 59 | 205 | 7.0 | 16.0 | 0.00 | 0.00 | 0.00 | 49 | 1010.1 |
| 20260503170559 | 59 | 185 | 6.0 | 16.0 | 0.00 | 0.00 | 0.00 | 49 | 1010.0 |
| 20260503170359 | 59 | 186 | 7.0 | 16.0 | 0.00 | 0.00 | 0.00 | 50 | 1010.2 |
| 20260503170159 | 59 | 207 | 8.0 | 16.0 | 0.00 | 0.00 | 0.00 | 49 | 1010.3 |
| 20260503160150 | 55 | 208 | 6.0 | 14.0 | 0.00 | 0.00 | 0.00 | 46 | 1011.1 |
| 20260503150942 | 53 | 189 | 6.0 | 15.0 | 0.00 | 0.00 | 0.00 | 47 | 1012.0 |
| 20260503150742 | 53 | 222 | 5.0 | 15.0 | 0.00 | 0.00 | 0.00 | 47 | 1012.0 |
| 20260503150541 | 53 | 230 | 5.0 | 12.0 | 0.00 | 0.00 | 0.00 | 49 | 1012.0 |
| 20260503150341 | 53 | 219 | 4.0 | 12.0 | 0.00 | 0.00 | 0.00 | 50 | 1012.0 |
| 20260503150141 | 52 | 215 | 6.0 | 12.0 | 0.00 | 0.00 | 0.00 | 48 | 1012.1 |
| 20260503140132 | 46 | 210 | 1.0 | 8.0 | 0.00 | 0.00 | 0.00 | 64 | 1012.9 |
| 20260503131410 | 45 | 98 | 1.0 | 6.0 | 0.00 | 0.00 | 0.00 | 68 | 1013.1 |
| 20260503131209 | 45 | 91 | 2.0 | 5.0 | 0.00 | 0.00 | 0.00 | 68 | 1013.0 |
| 20260503131009 | 45 | 231 | 2.0 | 6.0 | 0.00 | 0.00 | 0.00 | 68 | 1013.0 |
| 20260503130809 | 45 | 172 | 1.0 | 12.0 | 0.00 | 0.00 | 0.00 | 68 | 1013.0 |
| 20260503130608 | 45 | 213 | 2.0 | 12.0 | 0.00 | 0.00 | 0.00 | 68 | 1012.9 |
| 20260503130408 | 45 | 225 | 2.0 | 12.0 | 0.00 | 0.00 | 0.00 | 68 | 1013.0 |
| 20260503130208 | 45 | 158 | 2.0 | 12.0 | 0.00 | 0.00 | 0.00 | 68 | 1013.0 |
| 20260503120159 | 38 | 216 | 2.0 | 11.0 | 0.00 | 0.00 | 0.00 | 79 | 1013.0 |
| 20260503110751 | 35 | 193 | 3.0 | 9.0 | 0.00 | 0.00 | 0.00 | 86 | 1012.8 |
| 20260503110550 | 35 | 196 | 2.0 | 9.0 | 0.00 | 0.00 | 0.00 | 87 | 1012.7 |
| 20260503110350 | 35 | 199 | 2.0 | 9.0 | 0.00 | 0.00 | 0.00 | 87 | 1012.7 |
| 20260503110150 | 35 | 169 | 2.0 | 9.0 | 0.00 | 0.00 | 0.00 | 87 | 1012.7 |
| 20260503100141 | 34 | 218 | 1.0 | 6.0 | 0.00 | 0.00 | 0.00 | 84 | 1012.7 |
| 20260503090332 | 35 | 194 | 2.0 | 6.0 | 0.00 | 0.00 | 0.00 | 80 | 1013.2 |
| 20260503090132 | 35 | 153 | 1.0 | 6.0 | 0.00 | 0.00 | 0.00 | 79 | 1013.2 |
| 20260503081525 | 35 | 210 | 2.0 | 6.0 | 0.00 | 0.00 | 0.00 | 74 | 1013.4 |
| 20260503081325 | 35 | 205 | 2.0 | 6.0 | 0.00 | 0.00 | 0.00 | 74 | 1013.4 |
| 20260503081124 | 35 | 212 | 1.0 | 6.0 | 0.00 | 0.00 | 0.00 | 75 | 1013.4 |
| 20260503080924 | 35 | 223 | 1.0 | 5.0 | 0.00 | 0.00 | 0.00 | 75 | 1013.4 |
| 20260503080724 | 35 | 199 | 2.0 | 5.0 | 0.00 | 0.00 | 0.00 | 75 | 1013.4 |
| 20260503080523 | 35 | 193 | 2.0 | 5.0 | 0.00 | 0.00 | 0.00 | 75 | 1013.4 |
| 20260503080323 | 35 | 203 | 1.0 | 5.0 | 0.00 | 0.00 | 0.00 | 75 | 1013.4 |
| 20260503080123 | 35 | 191 | 1.0 | 3.0 | 0.00 | 0.00 | 0.00 | 75 | 1013.4 |
| 20260503072918 | 35 | 199 | 1.0 | 6.0 | 0.00 | 0.00 | 0.00 | 73 | 1013.6 |
| 20260503072718 | 35 | 184 | 1.0 | 6.0 | 0.00 | 0.00 | 0.00 | 72 | 1013.6 |
| 20260503072517 | 35 | 201 | 1.0 | 6.0 | 0.00 | 0.00 | 0.00 | 72 | 1013.6 |
| 20260503072317 | 35 | 189 | 2.0 | 6.0 | 0.00 | 0.00 | 0.00 | 73 | 1013.6 |
| 20260503072117 | 35 | 233 | 1.0 | 6.0 | 0.00 | 0.00 | 0.00 | 73 | 1013.6 |
| 20260503071916 | 35 | 207 | 1.0 | 5.0 | 0.00 | 0.00 | 0.00 | 73 | 1013.6 |
| 20260503071717 | 35 | 258 | 1.0 | 3.0 | 0.00 | 0.00 | 0.00 | 73 | 1013.6 |
| 20260503071516 | 35 | 256 | 1.0 | 3.0 | 0.00 | 0.00 | 0.00 | 72 | 1013.5 |
| 20260503071316 | 35 | 234 | 1.0 | 3.0 | 0.00 | 0.00 | 0.00 | 72 | 1013.6 |
| 20260503071115 | 35 | 264 | 1.0 | 7.0 | 0.00 | 0.00 | 0.00 | 72 | 1013.6 |
| 20260503070915 | 35 | 298 | 0.0 | 7.0 | 0.00 | 0.00 | 0.00 | 72 | 1013.6 |
| 20260503070715 | 35 | 291 | 1.0 | 7.0 | 0.00 | 0.00 | 0.00 | 71 | 1013.6 |
| 20260503070514 | 35 | 213 | 1.0 | 7.0 | 0.00 | 0.00 | 0.00 | 71 | 1013.7 |
| 20260503070314 | 35 | 218 | 1.0 | 7.0 | 0.00 | 0.00 | 0.00 | 71 | 1013.7 |
| 20260503070114 | 34 | 110 | 1.0 | 4.0 | 0.00 | 0.00 | 0.00 | 70 | 1013.7 |
| 20260503060305 | 35 | 159 | 0.0 | 2.0 | 0.00 | 0.00 | 0.00 | 67 | 1014.0 |
| 20260503060105 | 35 | 144 | 0.0 | 2.0 | 0.00 | 0.00 | 0.00 | 67 | 1014.0 |
| 20260503055103 | 35 | 347 | 1.0 | 4.0 | 0.00 | 0.00 | 0.00 | 68 | 1014.1 |
| 20260503054903 | 35 | 141 | 1.0 | 3.0 | 0.00 | 0.00 | 0.00 | 68 | 1014.1 |
| 20260503054703 | 35 | 236 | 0.0 | 3.0 | 0.00 | 0.00 | 0.00 | 69 | 1014.1 |
| 20260503054502 | 35 | 237 | 0.0 | 2.0 | 0.00 | 0.00 | 0.00 | 69 | 1014.1 |
| 20260503054302 | 35 | 244 | 0.0 | 3.0 | 0.00 | 0.00 | 0.00 | 69 | 1014.2 |
| 20260503054102 | 35 | 215 | 0.0 | 3.0 | 0.00 | 0.00 | 0.00 | 69 | 1014.2 |
| 20260503053901 | 35 | 109 | 1.0 | 3.0 | 0.00 | 0.00 | 0.00 | 69 | 1014.2 |
| 20260503053701 | 35 | 120 | 1.0 | 3.0 | 0.00 | 0.00 | 0.00 | 69 | 1014.2 |
| 20260503053501 | 35 | 145 | 0.0 | 3.0 | 0.00 | 0.00 | 0.00 | 69 | 1014.2 |
| 20260503053300 | 35 | 108 | 1.0 | 4.0 | 0.00 | 0.00 | 0.00 | 69 | 1014.2 |
| 20260503053100 | 35 | 17 | 1.0 | 4.0 | 0.00 | 0.00 | 0.00 | 69 | 1014.2 |
| 20260503052900 | 35 | 262 | 1.0 | 4.0 | 0.00 | 0.00 | 0.00 | 70 | 1014.2 |
| 20260503052700 | 35 | 246 | 1.0 | 4.0 | 0.00 | 0.00 | 0.00 | 70 | 1014.3 |
| 20260503052459 | 35 | 132 | 1.0 | 4.0 | 0.00 | 0.00 | 0.00 | 70 | 1014.3 |
| 20260503052259 | 35 | 144 | 1.0 | 4.0 | 0.00 | 0.00 | 0.00 | 70 | 1014.3 |
| 20260503052059 | 34 | 183 | 0.0 | 4.0 | 0.00 | 0.00 | 0.00 | 70 | 1014.4 |
| 20260503051858 | 34 | 156 | 1.0 | 4.0 | 0.00 | 0.00 | 0.00 | 70 | 1014.3 |
| 20260503051658 | 34 | 227 | 1.0 | 4.0 | 0.00 | 0.00 | 0.00 | 71 | 1014.3 |
| 20260503051458 | 34 | 242 | 0.0 | 4.0 | 0.00 | 0.00 | 0.00 | 71 | 1014.4 |
| 20260503051258 | 34 | 263 | 0.0 | 4.0 | 0.00 | 0.00 | 0.00 | 71 | 1014.4 |
| 20260503051057 | 34 | 263 | 0.0 | 2.0 | 0.00 | 0.00 | 0.00 | 71 | 1014.4 |
| 20260503050857 | 34 | 263 | 0.0 | 2.0 | 0.00 | 0.00 | 0.00 | 71 | 1014.4 |
| 20260503050657 | 34 | 263 | 0.0 | 2.0 | 0.00 | 0.00 | 0.00 | 71 | 1014.4 |
| 20260503050456 | 34 | 263 | 0.0 | 2.0 | 0.00 | 0.00 | 0.00 | 71 | 1014.4 |
| 20260503050256 | 34 | 263 | 0.0 | 2.0 | 0.00 | 0.00 | 0.00 | 71 | 1014.4 |
| 20260503050056 | 34 | 263 | 0.0 | 2.0 | 0.00 | 0.00 | 0.00 | 71 | 1014.4 |
| 20260503045855 | 34 | 263 | 0.0 | 2.0 | 0.00 | 0.00 | 0.00 | 71 | 1014.4 |
| 20260503045655 | 34 | 263 | 0.0 | 2.0 | 0.00 | 0.00 | 0.00 | 72 | 1014.4 |
| 20260503045455 | 34 | 263 | 0.0 | 2.0 | 0.00 | 0.00 | 0.00 | 72 | 1014.3 |
| 20260503045255 | 34 | 263 | 0.0 | 2.0 | 0.00 | 0.00 | 0.00 | 72 | 1014.3 |
| 20260503045054 | 34 | 263 | 0.0 | 2.0 | 0.00 | 0.00 | 0.00 | 72 | 1014.3 |
| 20260503044854 | 34 | 263 | 0.0 | 2.0 | 0.00 | 0.00 | 0.00 | 72 | 1014.3 |
| 20260503044654 | 34 | 263 | 0.0 | 1.0 | 0.00 | 0.00 | 0.00 | 73 | 1014.3 |
| 20260503044453 | 34 | 263 | 0.0 | 1.0 | 0.00 | 0.00 | 0.00 | 73 | 1014.3 |
| 20260503044253 | 34 | 263 | 0.0 | 1.0 | 0.00 | 0.00 | 0.00 | 73 | 1014.3 |
| 20260503044053 | 34 | 263 | 0.0 | 1.0 | 0.00 | 0.00 | 0.00 | 73 | 1014.4 |
| 20260503043852 | 34 | 263 | 0.0 | 1.0 | 0.00 | 0.00 | 0.00 | 73 | 1014.4 |
| 20260503043652 | 35 | 0 | 0.0 | 1.0 | 0.00 | 0.00 | 0.00 | 73 | 1014.4 |
| 20260503043452 | 35 | 263 | 0.0 | 1.0 | 0.00 | 0.00 | 0.00 | 73 | 1014.4 |
| 20260503043252 | 35 | 0 | 0.0 | 1.0 | 0.00 | 0.00 | 0.00 | 73 | 1014.4 |
| 20260503043051 | 35 | 0 | 0.0 | 1.0 | 0.00 | 0.00 | 0.00 | 73 | 1014.4 |
| 20260503042851 | 35 | 263 | 0.0 | 1.0 | 0.00 | 0.00 | 0.00 | 73 | 1014.4 |
| 20260503042651 | 35 | 263 | 0.0 | 1.0 | 0.00 | 0.00 | 0.00 | 72 | 1014.4 |
| 20260503042450 | 35 | 263 | 0.0 | 1.0 | 0.00 | 0.00 | 0.00 | 72 | 1014.3 |
| 20260503042250 | 35 | 263 | 0.0 | 1.0 | 0.00 | 0.00 | 0.00 | 72 | 1014.5 |
| 20260503042050 | 35 | 263 | 0.0 | 1.0 | 0.00 | 0.00 | 0.00 | 72 | 1014.5 |
| 20260503041849 | 35 | 263 | 0.0 | 1.0 | 0.00 | 0.00 | 0.00 | 72 | 1014.5 |
| 20260503041649 | 35 | 263 | 0.0 | 1.0 | 0.00 | 0.00 | 0.00 | 72 | 1014.5 |
| 20260503041449 | 35 | 0 | 0.0 | 2.0 | 0.00 | 0.00 | 0.00 | 72 | 1014.5 |
| 20260503041249 | 35 | 263 | 0.0 | 2.0 | 0.00 | 0.00 | 0.00 | 73 | 1014.6 |
| 20260503041048 | 35 | 263 | 0.0 | 2.0 | 0.00 | 0.00 | 0.00 | 73 | 1014.6 |
| 20260503040848 | 36 | 263 | 0.0 | 2.0 | 0.00 | 0.00 | 0.00 | 73 | 1014.6 |
| 20260503040648 | 36 | 263 | 0.0 | 2.0 | 0.00 | 0.00 | 0.00 | 73 | 1014.6 |
| 20260503040447 | 36 | 263 | 0.0 | 2.0 | 0.00 | 0.00 | 0.00 | 73 | 1014.6 |
| 20260503040247 | 36 | 263 | 0.0 | 2.0 | 0.00 | 0.00 | 0.00 | 73 | 1014.6 |
| 20260503040047 | 36 | 263 | 0.0 | 2.0 | 0.00 | 0.00 | 0.00 | 73 | 1014.6 |
| 20260503035846 | 36 | 263 | 0.0 | 2.0 | 0.00 | 0.00 | 0.00 | 73 | 1014.6 |
| 20260503035646 | 36 | 263 | 0.0 | 2.0 | 0.00 | 0.00 | 0.00 | 73 | 1014.6 |
| 20260503035446 | 36 | 263 | 0.0 | 2.0 | 0.00 | 0.00 | 0.00 | 73 | 1014.6 |
| 20260503035246 | 36 | 263 | 0.0 | 2.0 | 0.00 | 0.00 | 0.00 | 73 | 1014.6 |
| 20260503035045 | 36 | 263 | 0.0 | 2.0 | 0.00 | 0.00 | 0.00 | 73 | 1014.6 |
| 20260503034845 | 36 | 263 | 0.0 | 2.0 | 0.00 | 0.00 | 0.00 | 73 | 1014.6 |
| 20260503034645 | 36 | 263 | 0.0 | 3.0 | 0.00 | 0.00 | 0.00 | 73 | 1014.6 |
| 20260503034444 | 36 | 263 | 0.0 | 3.0 | 0.00 | 0.00 | 0.00 | 73 | 1014.6 |
| 20260503034244 | 36 | 255 | 0.0 | 3.0 | 0.00 | 0.00 | 0.00 | 73 | 1014.6 |
| 20260503034044 | 36 | 250 | 0.0 | 3.0 | 0.00 | 0.00 | 0.00 | 73 | 1014.6 |
| 20260503033843 | 36 | 235 | 1.0 | 3.0 | 0.00 | 0.00 | 0.00 | 73 | 1014.6 |
| 20260503033643 | 36 | 249 | 1.0 | 3.0 | 0.00 | 0.00 | 0.00 | 73 | 1014.6 |
| 20260503033443 | 36 | 249 | 0.0 | 2.0 | 0.00 | 0.00 | 0.00 | 73 | 1014.6 |
| 20260503033243 | 36 | 249 | 0.0 | 2.0 | 0.00 | 0.00 | 0.00 | 73 | 1014.6 |
| 20260503033042 | 37 | 249 | 0.0 | 2.0 | 0.00 | 0.00 | 0.00 | 73 | 1014.7 |
| 20260503032842 | 37 | 249 | 0.0 | 3.0 | 0.00 | 0.00 | 0.00 | 73 | 1014.7 |
| 20260503032642 | 37 | 249 | 0.0 | 3.0 | 0.00 | 0.00 | 0.00 | 73 | 1014.6 |
| 20260503032441 | 37 | 224 | 0.0 | 4.0 | 0.00 | 0.00 | 0.00 | 72 | 1014.6 |
| 20260503032241 | 37 | 136 | 0.0 | 5.0 | 0.00 | 0.00 | 0.00 | 72 | 1014.6 |
| 20260503032041 | 37 | 184 | 0.0 | 5.0 | 0.00 | 0.00 | 0.00 | 72 | 1014.7 |
| 20260503031840 | 37 | 210 | 0.0 | 5.0 | 0.00 | 0.00 | 0.00 | 72 | 1014.6 |
| 20260503031640 | 38 | 180 | 1.0 | 5.0 | 0.00 | 0.00 | 0.00 | 72 | 1014.7 |
| 20260503031440 | 38 | 164 | 2.0 | 5.0 | 0.00 | 0.00 | 0.00 | 72 | 1014.7 |
| 20260503031240 | 38 | 163 | 1.0 | 4.0 | 0.00 | 0.00 | 0.00 | 72 | 1014.6 |
| 20260503031039 | 38 | 194 | 1.0 | 4.0 | 0.00 | 0.00 | 0.00 | 72 | 1014.6 |
| 20260503030839 | 38 | 228 | 2.0 | 4.0 | 0.00 | 0.00 | 0.00 | 72 | 1014.7 |
| 20260503030639 | 38 | 201 | 1.0 | 4.0 | 0.00 | 0.00 | 0.00 | 72 | 1014.7 |
| 20260503030438 | 38 | 233 | 1.0 | 4.0 | 0.00 | 0.00 | 0.00 | 72 | 1014.7 |
| 20260503030238 | 38 | 227 | 1.0 | 6.0 | 0.00 | 0.00 | 0.00 | 72 | 1014.7 |
| 20260503030038 | 38 | 206 | 1.0 | 6.0 | 0.00 | 0.00 | 0.00 | 72 | 1014.7 |
| 20260503025837 | 38 | 178 | 1.0 | 6.0 | 0.00 | 0.00 | 0.00 | 72 | 1014.7 |
| 20260503025637 | 38 | 181 | 1.0 | 6.0 | 0.00 | 0.00 | 0.00 | 72 | 1014.7 |
| 20260503025437 | 38 | 169 | 1.0 | 6.0 | 0.00 | 0.00 | 0.00 | 72 | 1014.8 |
| 20260503025237 | 38 | 269 | 0.0 | 6.0 | 0.00 | 0.00 | 0.00 | 72 | 1014.8 |
| 20260503025036 | 38 | 249 | 1.0 | 6.0 | 0.00 | 0.00 | 0.00 | 72 | 1014.7 |
| 20260503024836 | 38 | 214 | 1.0 | 6.0 | 0.00 | 0.00 | 0.00 | 72 | 1014.8 |
| 20260503024636 | 37 | 234 | 1.0 | 6.0 | 0.00 | 0.00 | 0.00 | 72 | 1014.7 |
| 20260503024435 | 37 | 232 | 0.0 | 3.0 | 0.00 | 0.00 | 0.00 | 72 | 1014.8 |
| 20260503024235 | 38 | 232 | 0.0 | 4.0 | 0.00 | 0.00 | 0.00 | 72 | 1014.8 |
| 20260503024035 | 38 | 232 | 0.0 | 4.0 | 0.00 | 0.00 | 0.00 | 72 | 1014.9 |
| 20260503023834 | 38 | 216 | 1.0 | 4.0 | 0.00 | 0.00 | 0.00 | 72 | 1014.9 |
| 20260503023634 | 38 | 140 | 1.0 | 4.0 | 0.00 | 0.00 | 0.00 | 72 | 1014.9 |
| 20260503023434 | 38 | 169 | 1.0 | 4.0 | 0.00 | 0.00 | 0.00 | 71 | 1014.9 |
| 20260503023234 | 38 | 233 | 0.0 | 4.0 | 0.00 | 0.00 | 0.00 | 71 | 1014.9 |
| 20260503023033 | 38 | 214 | 1.0 | 4.0 | 0.00 | 0.00 | 0.00 | 71 | 1014.9 |
| 20260503022833 | 38 | 146 | 0.0 | 5.0 | 0.00 | 0.00 | 0.00 | 71 | 1014.9 |
| 20260503022633 | 38 | 166 | 1.0 | 5.0 | 0.00 | 0.00 | 0.00 | 71 | 1015.0 |
| 20260503022432 | 38 | 217 | 1.0 | 5.0 | 0.00 | 0.00 | 0.00 | 71 | 1014.9 |
| 20260503022232 | 38 | 216 | 1.0 | 5.0 | 0.00 | 0.00 | 0.00 | 71 | 1015.0 |
| 20260503022032 | 38 | 226 | 1.0 | 5.0 | 0.00 | 0.00 | 0.00 | 71 | 1015.0 |
| 20260503021831 | 38 | 232 | 1.0 | 3.0 | 0.00 | 0.00 | 0.00 | 71 | 1015.0 |
| 20260503021631 | 38 | 232 | 1.0 | 3.0 | 0.00 | 0.00 | 0.00 | 71 | 1015.0 |
| 20260503021431 | 38 | 243 | 1.0 | 3.0 | 0.00 | 0.00 | 0.00 | 72 | 1015.0 |
| 20260503021231 | 38 | 254 | 0.0 | 2.0 | 0.00 | 0.00 | 0.00 | 71 | 1014.9 |
| 20260503021030 | 38 | 254 | 0.0 | 2.0 | 0.00 | 0.00 | 0.00 | 71 | 1014.9 |
| 20260503020830 | 38 | 254 | 0.0 | 2.0 | 0.00 | 0.00 | 0.00 | 71 | 1014.9 |
| 20260503020630 | 38 | 254 | 0.0 | 3.0 | 0.00 | 0.00 | 0.00 | 71 | 1014.9 |
| 20260503020429 | 38 | 254 | 0.0 | 3.0 | 0.00 | 0.00 | 0.00 | 71 | 1014.9 |
| 20260503020229 | 38 | 254 | 0.0 | 3.0 | 0.00 | 0.00 | 0.00 | 71 | 1014.9 |
| 20260503020029 | 38 | 254 | 0.0 | 3.0 | 0.00 | 0.00 | 0.00 | 71 | 1014.9 |
| 20260503015829 | 38 | 220 | 0.0 | 3.0 | 0.00 | 0.00 | 0.00 | 71 | 1014.9 |
| 20260503015628 | 38 | 236 | 0.0 | 3.0 | 0.00 | 0.00 | 0.00 | 71 | 1014.9 |
| 20260503015428 | 38 | 236 | 0.0 | 2.0 | 0.00 | 0.00 | 0.00 | 71 | 1014.9 |
| 20260503015227 | 38 | 236 | 0.0 | 2.0 | 0.00 | 0.00 | 0.00 | 70 | 1014.9 |
| 20260503015027 | 38 | 236 | 0.0 | 2.0 | 0.00 | 0.00 | 0.00 | 70 | 1014.8 |
| 20260503014827 | 39 | 236 | 0.0 | 2.0 | 0.00 | 0.00 | 0.00 | 70 | 1014.8 |
| 20260503014627 | 39 | 236 | 0.0 | 2.0 | 0.00 | 0.00 | 0.00 | 70 | 1014.8 |
| 20260503014426 | 39 | 0 | 0.0 | 2.0 | 0.00 | 0.00 | 0.00 | 69 | 1014.8 |
| 20260503014226 | 39 | 0 | 0.0 | 2.0 | 0.00 | 0.00 | 0.00 | 69 | 1014.8 |
| 20260503014026 | 39 | 236 | 0.0 | 2.0 | 0.00 | 0.00 | 0.00 | 69 | 1014.7 |
| 20260503013825 | 39 | 236 | 0.0 | 3.0 | 0.00 | 0.00 | 0.00 | 68 | 1014.8 |
| 20260503013625 | 39 | 236 | 0.0 | 3.0 | 0.00 | 0.00 | 0.00 | 68 | 1014.8 |
| 20260503013425 | 40 | 236 | 0.0 | 3.0 | 0.00 | 0.00 | 0.00 | 68 | 1014.7 |
| 20260503013224 | 40 | 236 | 1.0 | 3.0 | 0.00 | 0.00 | 0.00 | 68 | 1014.8 |
| 20260503013024 | 40 | 236 | 1.0 | 2.0 | 0.00 | 0.00 | 0.00 | 68 | 1014.7 |
| 20260503012824 | 40 | 236 | 0.0 | 2.0 | 0.00 | 0.00 | 0.00 | 68 | 1014.8 |
| 20260503012624 | 40 | 236 | 0.0 | 2.0 | 0.00 | 0.00 | 0.00 | 68 | 1014.8 |
| 20260503012423 | 40 | 236 | 0.0 | 2.0 | 0.00 | 0.00 | 0.00 | 68 | 1014.8 |
| 20260503012223 | 40 | 236 | 0.0 | 2.0 | 0.00 | 0.00 | 0.00 | 68 | 1014.8 |
| 20260503012023 | 40 | 236 | 0.0 | 2.0 | 0.00 | 0.00 | 0.00 | 67 | 1014.8 |
| 20260503011822 | 40 | 236 | 0.0 | 2.0 | 0.00 | 0.00 | 0.00 | 67 | 1014.8 |
| 20260503011622 | 40 | 236 | 0.0 | 2.0 | 0.00 | 0.00 | 0.00 | 67 | 1014.8 |
| 20260503011422 | 40 | 236 | 0.0 | 3.0 | 0.00 | 0.00 | 0.00 | 67 | 1014.8 |
| 20260503011221 | 40 | 236 | 0.0 | 4.0 | 0.00 | 0.00 | 0.00 | 67 | 1014.8 |
| 20260503011021 | 40 | 236 | 0.0 | 4.0 | 0.00 | 0.00 | 0.00 | 67 | 1014.8 |
| 20260503010821 | 40 | 236 | 0.0 | 4.0 | 0.00 | 0.00 | 0.00 | 67 | 1014.9 |
| 20260503010621 | 40 | 224 | 1.0 | 4.0 | 0.00 | 0.00 | 0.00 | 67 | 1014.8 |
| 20260503010420 | 40 | 136 | 1.0 | 4.0 | 0.00 | 0.00 | 0.00 | 67 | 1014.9 |
| 20260503010220 | 41 | 127 | 0.0 | 4.0 | 0.00 | 0.00 | 0.00 | 66 | 1014.8 |
| 20260503010020 | 41 | 197 | 0.0 | 4.0 | 0.00 | 0.00 | 0.00 | 66 | 1014.9 |
| 20260503005819 | 41 | 239 | 0.0 | 4.0 | 0.00 | 0.00 | 0.00 | 66 | 1014.8 |
| 20260503005619 | 41 | 232 | 1.0 | 4.0 | 0.00 | 0.00 | 0.00 | 66 | 1014.8 |
| 20260503005419 | 41 | 258 | 1.0 | 4.0 | 0.00 | 0.00 | 0.00 | 66 | 1014.8 |
| 20260503005218 | 41 | 245 | 1.0 | 4.0 | 0.00 | 0.00 | 0.00 | 66 | 1014.8 |
| 20260503005018 | 41 | 206 | 0.0 | 3.0 | 0.00 | 0.00 | 0.00 | 66 | 1014.8 |
| 20260503004818 | 41 | 177 | 1.0 | 3.0 | 0.00 | 0.00 | 0.00 | 66 | 1014.7 |
| 20260503004618 | 41 | 202 | 1.0 | 2.0 | 0.00 | 0.00 | 0.00 | 66 | 1014.8 |
| 20260503004417 | 41 | 202 | 0.0 | 2.0 | 0.00 | 0.00 | 0.00 | 66 | 1014.8 |
| 20260503004217 | 41 | 202 | 0.0 | 2.0 | 0.00 | 0.00 | 0.00 | 66 | 1014.8 |
| 20260503004017 | 41 | 202 | 0.0 | 1.0 | 0.00 | 0.00 | 0.00 | 66 | 1014.8 |
| 20260503003816 | 41 | 202 | 0.0 | 1.0 | 0.00 | 0.00 | 0.00 | 65 | 1014.7 |
| 20260503003616 | 42 | 202 | 0.0 | 1.0 | 0.00 | 0.00 | 0.00 | 65 | 1014.7 |
| 20260503003416 | 42 | 202 | 0.0 | 1.0 | 0.00 | 0.00 | 0.00 | 65 | 1014.7 |
| 20260503003215 | 42 | 202 | 0.0 | 2.0 | 0.00 | 0.00 | 0.00 | 65 | 1014.7 |
| 20260503003015 | 42 | 202 | 0.0 | 3.0 | 0.00 | 0.00 | 0.00 | 65 | 1014.7 |
| 20260503002815 | 42 | 202 | 0.0 | 3.0 | 0.00 | 0.00 | 0.00 | 64 | 1014.6 |
| 20260503002615 | 42 | 202 | 0.0 | 3.0 | 0.00 | 0.00 | 0.00 | 64 | 1014.6 |
| 20260503002414 | 42 | 206 | 1.0 | 3.0 | 0.00 | 0.00 | 0.00 | 64 | 1014.7 |
| 20260503002214 | 42 | 220 | 0.0 | 3.0 | 0.00 | 0.00 | 0.00 | 64 | 1014.6 |
| 20260503002014 | 42 | 239 | 0.0 | 3.0 | 0.00 | 0.00 | 0.00 | 64 | 1014.5 |
| 20260503001813 | 42 | 239 | 0.0 | 3.0 | 0.00 | 0.00 | 0.00 | 64 | 1014.6 |
| 20260503001613 | 42 | 246 | 1.0 | 3.0 | 0.00 | 0.00 | 0.00 | 64 | 1014.6 |
| 20260503001413 | 42 | 248 | 1.0 | 3.0 | 0.00 | 0.00 | 0.00 | 63 | 1014.6 |
| 20260503001212 | 42 | 191 | 0.0 | 2.0 | 0.00 | 0.00 | 0.00 | 63 | 1014.6 |
| 20260503001012 | 42 | 178 | 1.0 | 2.0 | 0.00 | 0.00 | 0.00 | 63 | 1014.6 |
| 20260503000812 | 42 | 112 | 0.0 | 2.0 | 0.00 | 0.00 | 0.00 | 63 | 1014.6 |
| 20260503000611 | 42 | 199 | 1.0 | 2.0 | 0.00 | 0.00 | 0.00 | 63 | 1014.7 |
| 20260503000411 | 42 | 254 | 0.0 | 2.0 | 0.00 | 0.00 | 0.00 | 62 | 1014.6 |
| 20260503000211 | 42 | 217 | 0.0 | 2.0 | 0.00 | 0.00 | 0.00 | 63 | 1014.7 |
| 20260503000011 | 42 | 217 | 0.0 | 2.0 | 0.00 | 0.00 | 0.00 | 63 | 1014.7 |
| 20260502235810 | 43 | 217 | 0.0 | 2.0 | 0.00 | 0.00 | 0.00 | 63 | 1014.7 |
| 20260502235610 | 43 | 217 | 0.0 | 3.0 | 0.00 | 0.00 | 0.00 | 62 | 1014.7 |
| 20260502235410 | 43 | 217 | 0.0 | 3.0 | 0.00 | 0.00 | 0.00 | 62 | 1014.7 |
| 20260502235209 | 43 | 217 | 0.0 | 4.0 | 0.00 | 0.00 | 0.00 | 62 | 1014.6 |
| 20260502235009 | 43 | 217 | 0.0 | 4.0 | 0.00 | 0.00 | 0.00 | 62 | 1014.6 |
| 20260502234809 | 43 | 180 | 1.0 | 4.0 | 0.00 | 0.00 | 0.00 | 62 | 1014.6 |
| 20260502234609 | 43 | 179 | 1.0 | 4.0 | 0.00 | 0.00 | 0.00 | 62 | 1014.6 |
| 20260502234408 | 43 | 177 | 1.0 | 4.0 | 0.00 | 0.00 | 0.00 | 62 | 1014.7 |
| 20260502234208 | 43 | 129 | 0.0 | 4.0 | 0.00 | 0.00 | 0.00 | 62 | 1014.6 |
| 20260502234008 | 43 | 129 | 0.0 | 3.0 | 0.00 | 0.00 | 0.00 | 62 | 1014.7 |
| 20260502233807 | 43 | 129 | 0.0 | 3.0 | 0.00 | 0.00 | 0.00 | 61 | 1014.7 |
| 20260502233607 | 43 | 46 | 1.0 | 3.0 | 0.00 | 0.00 | 0.00 | 61 | 1014.7 |
| 20260502233407 | 43 | 28 | 1.0 | 3.0 | 0.00 | 0.00 | 0.00 | 61 | 1014.6 |
| 20260502233206 | 43 | 255 | 1.0 | 3.0 | 0.00 | 0.00 | 0.00 | 61 | 1014.7 |
| 20260502233006 | 43 | 237 | 1.0 | 3.0 | 0.00 | 0.00 | 0.00 | 61 | 1014.7 |
| 20260502232806 | 43 | 240 | 1.0 | 4.0 | 0.00 | 0.00 | 0.00 | 61 | 1014.7 |
| 20260502232605 | 43 | 273 | 1.0 | 4.0 | 0.00 | 0.00 | 0.00 | 61 | 1014.7 |
| 20260502232405 | 43 | 12 | 1.0 | 4.0 | 0.00 | 0.00 | 0.00 | 61 | 1014.7 |
| 20260502232205 | 43 | 68 | 1.0 | 4.0 | 0.00 | 0.00 | 0.00 | 61 | 1014.7 |
| 20260502232005 | 43 | 114 | 1.0 | 4.0 | 0.00 | 0.00 | 0.00 | 61 | 1014.7 |
| 20260502231804 | 43 | 151 | 0.0 | 4.0 | 0.00 | 0.00 | 0.00 | 61 | 1014.8 |
| 20260502231604 | 43 | 135 | 0.0 | 5.0 | 0.00 | 0.00 | 0.00 | 61 | 1014.8 |
| 20260502231404 | 43 | 135 | 0.0 | 5.0 | 0.00 | 0.00 | 0.00 | 61 | 1014.8 |
| 20260502231203 | 43 | 70 | 1.0 | 5.0 | 0.00 | 0.00 | 0.00 | 60 | 1014.7 |
| 20260502231003 | 43 | 57 | 2.0 | 5.0 | 0.00 | 0.00 | 0.00 | 60 | 1014.7 |
| 20260502230803 | 43 | 1 | 1.0 | 5.0 | 0.00 | 0.00 | 0.00 | 60 | 1014.7 |
| 20260502230603 | 43 | 327 | 2.0 | 5.0 | 0.00 | 0.00 | 0.00 | 60 | 1014.7 |
| 20260502230402 | 43 | 27 | 2.0 | 6.0 | 0.00 | 0.00 | 0.00 | 60 | 1014.7 |
| 20260502230202 | 43 | 158 | 1.0 | 7.0 | 0.00 | 0.00 | 0.00 | 60 | 1014.7 |
| 20260502230002 | 43 | 288 | 1.0 | 9.0 | 0.00 | 0.00 | 0.00 | 60 | 1014.7 |
| 20260502225801 | 43 | 26 | 2.0 | 9.0 | 0.00 | 0.00 | 0.00 | 60 | 1014.8 |
| 20260502225601 | 43 | 23 | 3.0 | 9.0 | 0.00 | 0.00 | 0.00 | 60 | 1014.7 |